Preview of NWS' New Version of Forecast
This preview is not operational and should not be used for support decisions.
Latest weather observations around

Birmingham, Birmingham International Airport (KBHM)

Using English Units (Switch to International System of Units)
Date/ Time (CDT) Wind (mph) Vis. (mi) Weather Sky Cond. Temp (°F) Rel. Humidity Wind Chill (°F) Heat Index (°F) Pressure Precip. (in)
Air Dwpt 6 hour Altimeter (inHg) Sea level (inHg) 1 hr 3 hr 6 hr
Max Min
Aug 23 05:53 Calm 10 Partly Cloudy SCT250 76 71     85%   77   30.02      
Aug 23 04:53 Calm 10 Partly Cloudy SCT250 77 71     82%   78 30.03 30      
Aug 23 03:53 SSW 6 10 Partly Cloudy SCT250 78 72     82%   79 30.03 29.99      
Aug 23 02:53 SW 7 10 Partly Cloudy SCT250 79 72     79%   82 30.02 29.99      
Aug 23 01:53 SW 5 10 Clear CLR 80 72     76%   84 30.04 30.01      
Aug 23 00:53 SW 8 10 Mostly Clear FEW070 FEW120 81 71     72%   85 30.05 30.02      
Aug 22 23:53 SSW 6 10 Partly Cloudy SCT250 82 70     67%   86 30.05 30.02      
Aug 22 22:53 SSE 6 10 Clear CLR 80 70     71%   83 30.05 30.02      
Aug 22 21:53 ENE 3 10 Mostly Clear FEW050 81 70     69%   84 30.04 30.01      
Aug 22 20:53 Calm 10 Mostly Clear FEW250 82 70     67%   86 30.02 29.99      
Aug 22 19:53 W 5 10 Mostly Clear FEW250 84 70     63%   88 29.99 29.96      
Aug 22 18:53 WNW 9 10 Mostly Clear FEW060 FEW250 88 68     52%   92 29.99 29.96      
Aug 22 17:53 SSW 9 10 Partly Cloudy FEW060 SCT250 91 66     44%   94 29.99 29.96      
Aug 22 16:53 SSW 13 10 Partly Cloudy FEW060 SCT075 SCT250 93 65     40%   95 30 29.97      
Aug 22 15:53 S 10 10 Partly Cloudy FEW055 SCT250 93 67     43%   97 30 29.97      
Aug 22 14:53 SSW 5 10 Mostly Cloudy SCT050 BKN060 BKN250 90 68     49%   94 30.01 29.98      
Aug 22 13:53 Calm 10 Mostly Cloudy FEW049 BKN150 89 68     50%   93 30.04 30.01      
Aug 22 12:53 W 7 10 Mostly Cloudy FEW042 SCT049 BKN150 88 68     52%   92 30.07 30.04      
Aug 22 11:53 S 5 10 Mostly Cloudy FEW034 BKN150 85 70     61%   89 30.09 30.06      
Aug 22 10:53 S 6 10 Mostly Cloudy FEW020 BKN150 83 72     70%   88 30.1 30.07      
Aug 22 10:40 SE 7 10 Mostly Cloudy FEW020 BKN150 82 72     72%   87 30.1        
Aug 22 10:34 SE 6 10 Mostly Cloudy BKN020 BKN150 82 72     72%   87 30.1        
Aug 22 09:53 S 5 10 Mostly Cloudy FEW018 BKN150 81 72     74%   85 30.11 30.08      
Aug 22 08:53 SW 5 10 Mostly Cloudy BKN150 79 73     82%   82 30.11 30.09      
Aug 22 07:53 Calm 10 Clear CLR 78 72     82%   79   30.09      
Aug 22 06:53 Calm 10 Mostly Cloudy FEW050 BKN250 74 71     91%   75 30.11 30.09      
Aug 22 06:38 Calm 10 Mostly Cloudy FEW020 SCT025 BKN049 BKN250 73 71     94%   74 30.11        
Aug 22 06:30 ESE 3 10 Mostly Cloudy FEW020 BKN025 BKN049 BKN250 73 71     94%   74 30.11        
Aug 22 05:53 Calm 10 Partly Cloudy SCT250 73 70     90%   74 30.1 30.07      
Aug 22 04:53 Calm 10 Partly Cloudy SCT250 73 71     94%   74 30.08 30.06      
Aug 22 03:53 Calm 10 Partly Cloudy SCT250 73 71     94%   74 30.07 30.04      
Aug 22 02:53 SE 3 10 Clear CLR 74 70     87%   75 30.06 30.03      
Aug 22 01:53 Calm 10 Clear CLR 75 70     84%   76 30.05 30.02      
Aug 22 00:53 Calm 10 Mostly Clear FEW250 75 72     90%   76 30.06 30.03     0
Aug 21 23:53 Calm 10 Mostly Clear FEW120 75 73     94%   77   30.07      
Aug 21 22:53 NE 3 10 Mostly Clear FEW120 76 73     91%   77   30.08      
Aug 21 21:53 Calm 10 Mostly Cloudy BKN120 76 73     91%   77 30.1 30.08 0 0  
Aug 21 20:53 NE 3 10 Light Rain BKN110 76 73     91%   77 30.08 30.06 0    
Aug 21 19:53 ESE 3 10 Mostly Cloudy FEW050 BKN110 75 69     82%   76 30.07 30.04 0    
Aug 21 19:43 3 10 Light Rain FEW050 BKN110 75 67     76%   76 30.07   0    
Notice The following observation data may not be complete
Aug 21 18:53 NW 14 5 Thunderstorms and Rain FEW055 BKN110   71      %       30.02 0   0
Notice The following observation data may not be complete
Aug 21 18:17 NW 14 5 Thunderstorms and Rain BKN060   71      %         0    
Aug 21 17:53 SW 15 9 Thunderstorms and Rain SCT080 BKN250 84 71     65%   89   30.01 0    
Aug 21 17:41   10 Thunderstorms FEW080 BKN250 87 68     53%   91 30.03        
Aug 21 16:53 5 10 Mostly Cloudy SCT060 BKN250 92 67     44%   95 30.04 30.01      
Aug 21 15:53 6 10 Mostly Cloudy FEW055 SCT100 BKN250 94 67     41%   98 30.05 30.02      
Aug 21 14:53 Calm 10 Mostly Cloudy BKN050 91 67     45%   94 30.07 30.03      
Aug 21 13:53 W 7 10 Mostly Cloudy SCT043 BKN250 92 69     47%   97 30.1 30.07      
Aug 21 12:53 6 10 Mostly Cloudy SCT044 BKN250 90 69     50%   95 30.13 30.1      
Aug 21 11:53 W 10 10 Mostly Cloudy SCT036 BKN250 88 69     54%   92 30.14 30.11      
Aug 21 10:53 6 10 Mostly Cloudy SCT030 BKN250 87 69     55%   91 30.16 30.13      
Aug 21 09:53 SW 9 10 Mostly Cloudy SCT022 BKN250 84 71     65%   89 30.15 30.12      
Aug 21 08:53 S 6 10 Mostly Cloudy FEW018 SCT150 BKN250 80 71     74%   84 30.14 30.11      
Aug 21 07:53 S 5 10 Mostly Cloudy FEW014 FEW150 BKN250 76 71     85%   77 30.13 30.1      
Aug 21 06:53 SSE 3 10 Mostly Cloudy FEW150 BKN250 75 71     88%   76 30.12 30.09      
Aug 21 05:53 S 7 10 Mostly Cloudy FEW007 BKN250 75 70     84%   76 30.11 30.08      
Aug 21 04:53 S 8 10 Mostly Cloudy BKN250 75 70     84%   76 30.09 30.06      
Aug 21 03:53 SSE 5 10 Mostly Cloudy BKN250 75 70     84%   76 30.08 30.05      
Aug 21 02:53 3 10 Mostly Cloudy BKN250 76 70     82%   77 30.08 30.04      
Aug 21 01:53 S 6 10 Partly Cloudy SCT120 76 71     85%   77 30.08 30.05      
Aug 21 00:53 SW 7 10 Mostly Cloudy BKN120 76 70     82%   77 30.12 30.09      
Aug 20 23:53 WNW 3 10 Mostly Cloudy BKN120 77 72     84%   78 30.15 30.12      
Aug 20 22:53 NW 6 10 Partly Cloudy SCT110 78 72     82%   79 30.16 30.13      
Aug 20 21:53 WSW 5 10 Mostly Cloudy FEW050 BKN120 78 72     82%   79 30.15 30.12      
Aug 20 20:53 WSW 14 10 Mostly Cloudy FEW080 BKN120 82 69     65%   85   30.09      
Aug 20 20:40 SSW 8 10 Mostly Cloudy FEW080 BKN120 82 70     67%   86 30.11        
Aug 20 20:12 S 8 10 Mostly Cloudy FEW080 BKN120 82 70     67%   86 30.1        
Aug 20 19:53 S 13 10 Mostly Cloudy SCT080 BKN120 83 70     65%   87   30.07      
Aug 20 18:53 S 8 10 Mostly Cloudy SCT090 BKN110 88 68     52%   92 30.06 30.03     0
Aug 20 17:53 SE 5 10 Mostly Cloudy SCT090 BKN110 89 69     52%   94 30.05 30.02      
Aug 20 17:00 SSE 9 10 Mostly Cloudy FEW075 BKN090 89 70     53%   94 30.04        
Aug 20 16:53 SSE 13 10 Thunderstorms SCT050 BKN075 88 70     55%   93 30.04 30.01      
Aug 20 16:49 SSE 14 10 Thunderstorms SCT050 BKN075 90 70     52%   95 30.04        
Aug 20 15:53 SSW 7 10 Mostly Cloudy SCT050 BKN080 92 68     46%   96 30.04 30.01 0 0  
Aug 20 14:53 NNE 7 10 Mostly Cloudy BKN060 BKN075 BKN095 93 67     43%   97 30.06 30.03      
Aug 20 13:53 E 6 10 Partly Cloudy SCT060 93 66     41%   96 30.08 30.05      
Aug 20 12:53 Calm 10 Mostly Cloudy FEW055 SCT070 BKN250 92 68     46%   96 30.11 30.08      
Aug 20 11:53 W 3 10 Partly Cloudy FEW046 SCT250 91 69     49%   96 30.13 30.1      
Aug 20 10:53 5 10 Mostly Clear FEW046 90 69     50%   95 30.15 30.11      
Aug 20 09:53 Calm 10 Clear CLR 87 68     53%   91 30.12 30.09      
Aug 20 08:53 Calm 10 Clear CLR 83 68     61%   86 30.12 30.09      
Aug 20 07:53 Calm 10 Clear CLR 77 68     74%   78 30.13 30.11      
Aug 20 06:53 Calm 10 Mostly Clear FEW250 73 68     84%   74 30.14 30.11      
May 13 22:53 Calm 10 Clear CLR 73 64     73%   73 30.09 30.06      
May 13 16:53 NNW 7 10 Mostly Clear FEW065 91 58     33%   90 30.06 30.03      
May 13 13:53 6 10 Mostly Clear FEW065 89 60     38%   89 30.12 30.1      
May 12 16:53 S 7 10 Mostly Clear FEW250 89 53     29%   87 30.1 30.08      
May 12 08:53 Calm 10 Clear CLR 78 58     50%   78 30.2 30.17      
May 12 03:53 Calm 10 Clear CLR 64 59     84%     30.13 30.1      
May 11 20:53 SSE 3 10 Clear CLR 78 58     50%   78 30.11 30.08      
Jun 12 03:53 SSE 5 10 Mostly Clear FEW040 74 71     91%   75 30.15 30.13      
Jun 11 23:53 SSE 5 10 Mostly Clear FEW050 79 70     74%   82 30.15 30.12      
Jun 11 07:53 SE 9 10 Partly Cloudy SCT065 SCT250 75 66     74%   76 30.17 30.14      
Jun 10 13:53 ESE 9 10 Mostly Cloudy SCT060 BKN075 86 58     39%   85 30.09 30.06      
Jun 10 11:53 3 10 Partly Cloudy SCT070 82        %     30.11 30.09      
Jun 08 22:53 Calm 10 Clear CLR 68 59     73%     29.95 29.93      
Jun 08 20:53 N 7 10 Mostly Clear FEW250 70 58     66%     29.91 29.89      
Jun 07 18:53   10 Mostly Clear FEW065 FEW250 79 54     42%   79 29.87 29.85      
Jun 06 03:11 NE 5 10 Mostly Cloudy FEW007 FEW022 BKN028 71 70     96%   72 29.81        
Jun 06 02:53 NNE 5 10 Partly Cloudy SCT120 71 70     96%   72 29.81 29.78      
Jun 05 19:53 Calm 10 Light Rain FEW020 SCT120 OVC250 72 70     93%   73 29.82 29.8 0    
Jun 05 14:53 Calm 10 Cloudy BKN065 BKN100 OVC250 75 70     84%   76 29.84 29.82 0